Location: Unspecified
(48.7971°N, 123.6320°W)
Time: 14:50:40
(UTC-07:00)

Okean 3 - Pass Details

Date: 01 July 2019
Orbit: 577 x 601 km, 82.5° (Epoch: 19 July)

Event Time Altitude Azimuth Distance (km) Brightness Sun altitude
Rises 03:37:29 0° 354° (N) 2,862 7.9 -11.7°
Reaches altitude 10° 03:39:46 10° 359° (N) 1,952 7.0 -11.5°
Maximum altitude 03:43:59 51° 76° (ENE) 758 4.3 -11.1°
Drops below altitude 10° 03:48:08 10° 153° (SSE) 1,926 5.8 -10.7°
Sets 03:50:22 0° 159° (SSE) 2,819 6.6 -10.5°
